User: anonymous
Location: Caltech
(34.1382°N, 118.1253°W)
Time: 20:15:22
(UTC-07:00)
Language:

Iridium 68 - Orbit

View from above orbital plane
View from above orbital plane
View from above satellite
View from above satellite

Ground track
Ground track

The orbit data is extracted from the following two-line orbital elements,

1 25291U 98021G   14109.23389645  .00000631  00000-0  21815-3 0  7396
2 25291 086.3982 346.7711 0002041 104.0027 256.1396 14.34210965839453
Epoch (UTC): 19 April 2014 05:36:48
Eccentricity: 0.0002041
inclination: 86.3982°
perigee height: 776 km
apogee height: 779 km
right ascension of ascending node: 346.7711°
argument of perigee: 104.0027°
revolutions per day: 14.34210965
mean anomaly at epoch: 256.1396°
orbit number at epoch: 83945

The dashed part of the orbit path shows where the satellite is in the earth's shadow,  

DLR